Station Historical Data
Daily Summary for June 26, 2017 Units:  English    Metric   Both
« Previous Day
Next Day »
Daily Weekly Monthly Yearly Custom
  High: Low: Average:
Temperature: 71.8 °F 56.1 °F 64.6 °F
Dew Point: 57.5 °F 47.0 °F 53.1 °F
Humidity: 76% 54% 67%
Wind Speed: 17.0mph 0.0mph 5.3mph
Wind Gust: 24.0mph - -
Wind- - WSW
Pressure: 29.99 in 29.92 in -
Precipitation: 0.00 in    
Historical Graphs
 
 
Tabular Data for June 26, 2017
Time Temperature Dew Point Pressure Wind Wind Speed Wind Gust Humidity Rainfall Rate (Hourly)
00:04 64.2 °F 52.2 °F 29.98 in WSW 4.0 mph 9.0 mph 65% 0.00 in
00:09 64.1 °F 52.1 °F 29.98 in WNW 5.0 mph 7.0 mph 65% 0.00 in
00:14 64.0 °F 52.0 °F 29.98 in WSW 3.0 mph 9.0 mph 65% 0.00 in
00:19 64.0 °F 51.6 °F 29.98 in West 4.0 mph 8.0 mph 64% 0.00 in
00:24 63.8 °F 51.8 °F 29.98 in NW 8.0 mph 8.0 mph 65% 0.00 in
00:29 63.8 °F 51.4 °F 29.98 in WSW 4.0 mph 8.0 mph 64% 0.00 in
00:34 63.8 °F 51.4 °F 29.98 in WNW 3.0 mph 7.0 mph 64% 0.00 in
00:39 63.7 °F 51.7 °F 29.98 in WSW 5.0 mph 6.0 mph 65% 0.00 in
00:44 63.7 °F 51.7 °F 29.98 in West 3.0 mph 8.0 mph 65% 0.00 in
00:49 63.5 °F 51.5 °F 29.98 in West 3.0 mph 8.0 mph 65% 0.00 in
00:54 63.3 °F 51.7 °F 29.98 in West 3.0 mph 6.0 mph 66% 0.00 in
00:59 63.3 °F 52.2 °F 29.98 in West 2.0 mph 6.0 mph 67% 0.00 in
01:04 63.3 °F 52.6 °F 29.98 in West 3.0 mph 6.0 mph 68% 0.00 in
01:09 63.3 °F 53.0 °F 29.98 in West 3.0 mph 6.0 mph 69% 0.00 in
01:14 63.2 °F 52.9 °F 29.98 in West 1.0 mph 4.0 mph 69% 0.00 in
01:19 63.3 °F 53.0 °F 29.98 in WSW 4.0 mph 7.0 mph 69% 0.00 in
01:24 63.3 °F 53.0 °F 29.98 in WSW 4.0 mph 7.0 mph 69% 0.00 in
01:29 63.2 °F 53.3 °F 29.98 in West 6.0 mph 7.0 mph 70% 0.00 in
01:34 63.2 °F 53.3 °F 29.97 in WNW 1.0 mph 6.0 mph 70% 0.00 in
01:39 63.1 °F 52.8 °F 29.97 in West 3.0 mph 7.0 mph 69% 0.00 in
01:44 63.1 °F 52.8 °F 29.97 in West 4.0 mph 8.0 mph 69% 0.00 in
01:45 63.1 °F 52.8 °F 29.97 in WSW 3.0 mph 8.0 mph 69% 0.00 in
01:54 62.9 °F 52.6 °F 29.97 in West 3.0 mph 7.0 mph 69% 0.00 in
01:59 62.8 °F 52.5 °F 29.97 in WSW 3.0 mph 6.0 mph 69% 0.00 in
02:04 62.7 °F 52.4 °F 29.97 in WNW 4.0 mph 7.0 mph 69% 0.00 in
02:09 62.6 °F 52.3 °F 29.97 in WSW 5.0 mph 6.0 mph 69% 0.00 in
02:14 62.4 °F 52.5 °F 29.97 in NW 5.0 mph 7.0 mph 70% 0.00 in
02:19 62.2 °F 52.3 °F 29.97 in West 3.0 mph 7.0 mph 70% 0.00 in
02:24 62.0 °F 52.1 °F 29.97 in West 3.0 mph 8.0 mph 70% 0.00 in
02:29 61.8 °F 51.9 °F 29.97 in West 2.0 mph 5.0 mph 70% 0.00 in
02:34 61.5 °F 52.0 °F 29.96 in SW 1.0 mph 4.0 mph 71% 0.00 in
02:39 61.5 °F 52.0 °F 29.96 in WSW 2.0 mph 4.0 mph 71% 0.00 in
02:44 61.4 °F 51.9 °F 29.96 in Calm   3.0 mph 71% 0.00 in
02:49 61.4 °F 51.9 °F 29.96 in WSW 1.0 mph 5.0 mph 71% 0.00 in
02:54 61.5 °F 51.6 °F 29.96 in WSW 3.0 mph 4.0 mph 70% 0.00 in
02:59 61.6 °F 51.7 °F 29.96 in WSW 3.0 mph 6.0 mph 70% 0.00 in
03:04 61.6 °F 51.7 °F 29.96 in Calm   4.0 mph 70% 0.00 in
03:09 61.6 °F 51.7 °F 29.96 in WSW 1.0 mph 3.0 mph 70% 0.00 in
03:14 61.6 °F 51.7 °F 29.96 in WSW 2.0 mph 5.0 mph 70% 0.00 in
03:19 61.7 °F 51.8 °F 29.96 in WSW 2.0 mph 6.0 mph 70% 0.00 in
03:24 61.9 °F 52.0 °F 29.96 in WSW 2.0 mph 6.0 mph 70% 0.00 in
03:29 61.9 °F 52.0 °F 29.96 in WSW 2.0 mph 5.0 mph 70% 0.00 in
03:34 61.8 °F 52.3 °F 29.96 in West 3.0 mph 6.0 mph 71% 0.00 in
03:39 61.7 °F 52.2 °F 29.96 in WNW 3.0 mph 6.0 mph 71% 0.00 in
03:44 61.7 °F 52.2 °F 29.95 in WNW 3.0 mph 5.0 mph 71% 0.00 in
03:49 61.6 °F 52.1 °F 29.95 in West 2.0 mph 6.0 mph 71% 0.00 in
03:54 61.6 °F 52.1 °F 29.95 in WNW 1.0 mph 5.0 mph 71% 0.00 in
03:59 61.4 °F 51.9 °F 29.96 in WNW 2.0 mph 4.0 mph 71% 0.00 in
04:04 61.3 °F 52.2 °F 29.96 in WNW 2.0 mph 5.0 mph 72% 0.00 in
04:09 61.1 °F 52.0 °F 29.96 in WNW 1.0 mph 4.0 mph 72% 0.00 in
04:14 60.9 °F 52.2 °F 29.96 in West 2.0 mph 5.0 mph 73% 0.00 in
04:19 60.8 °F 52.1 °F 29.96 in West 3.0 mph 7.0 mph 73% 0.00 in
04:24 60.7 °F 52.0 °F 29.96 in West 4.0 mph 8.0 mph 73% 0.00 in
04:29 60.6 °F 51.9 °F 29.96 in West 3.0 mph 8.0 mph 73% 0.00 in
04:34 60.4 °F 52.1 °F 29.96 in West 3.0 mph 6.0 mph 74% 0.00 in
04:39 60.2 °F 51.9 °F 29.96 in West 5.0 mph 7.0 mph 74% 0.00 in
04:44 60.0 °F 51.7 °F 29.96 in West 4.0 mph 7.0 mph 74% 0.00 in
04:49 59.8 °F 51.5 °F 29.96 in West 3.0 mph 7.0 mph 74% 0.00 in
04:54 59.6 °F 51.3 °F 29.96 in West 3.0 mph 5.0 mph 74% 0.00 in
04:59 59.5 °F 51.6 °F 29.96 in West 3.0 mph 6.0 mph 75% 0.00 in
05:04 59.5 °F 51.6 °F 29.96 in WSW 2.0 mph 6.0 mph 75% 0.00 in
05:09 59.3 °F 51.4 °F 29.96 in West 2.0 mph 4.0 mph 75% 0.00 in
05:14 59.2 °F 51.3 °F 29.97 in West 2.0 mph 5.0 mph 75% 0.00 in
05:19 59.1 °F 51.2 °F 29.97 in West 2.0 mph 5.0 mph 75% 0.00 in
05:24 59.1 °F 51.5 °F 29.97 in WSW 1.0 mph 6.0 mph 76% 0.00 in
05:29 58.9 °F 51.3 °F 29.97 in West 2.0 mph 6.0 mph 76% 0.00 in
05:34 59.0 °F 51.4 °F 29.97 in West 1.0 mph 4.0 mph 76% 0.00 in
05:39 59.1 °F 51.5 °F 29.97 in WSW 1.0 mph 5.0 mph 76% 0.00 in
05:44 59.1 °F 51.5 °F 29.97 in WSW 1.0 mph 5.0 mph 76% 0.00 in
05:49 59.3 °F 51.7 °F 29.97 in WSW 2.0 mph 6.0 mph 76% 0.00 in
05:54 59.6 °F 52.0 °F 29.97 in WSW 2.0 mph 6.0 mph 76% 0.00 in
05:59 59.8 °F 51.9 °F 29.97 in WSW 3.0 mph 6.0 mph 75% 0.00 in
06:04 60.0 °F 52.1 °F 29.98 in WSW 3.0 mph 7.0 mph 75% 0.00 in
06:09 60.2 °F 51.9 °F 29.98 in WSW 6.0 mph 6.0 mph 74% 0.00 in
06:14 60.4 °F 52.1 °F 29.98 in WSW 3.0 mph 8.0 mph 74% 0.00 in
06:19 60.5 °F 51.8 °F 29.98 in WSW 3.0 mph 8.0 mph 73% 0.00 in
06:24 60.7 °F 52.0 °F 29.98 in West 4.0 mph 10.0 mph 73% 0.00 in
06:29 60.8 °F 52.1 °F 29.98 in WSW 7.0 mph 8.0 mph 73% 0.00 in
06:34 60.8 °F 52.1 °F 29.98 in West 6.0 mph 7.0 mph 73% 0.00 in
06:39 60.9 °F 52.2 °F 29.98 in West 2.0 mph 7.0 mph 73% 0.00 in
06:44 61.1 °F 52.4 °F 29.98 in West 3.0 mph 7.0 mph 73% 0.00 in
06:49 61.2 °F 52.5 °F 29.98 in West 3.0 mph 9.0 mph 73% 0.00 in
06:54 61.1 °F 52.4 °F 29.98 in West 4.0 mph 9.0 mph 73% 0.00 in
06:59 61.1 °F 52.4 °F 29.98 in West 4.0 mph 9.0 mph 73% 0.00 in
07:04 61.1 °F 52.4 °F 29.98 in West 5.0 mph 10.0 mph 73% 0.00 in
07:09 61.3 °F 52.6 °F 29.98 in WSW 4.0 mph 7.0 mph 73% 0.00 in
07:14 61.8 °F 53.1 °F 29.98 in West 3.0 mph 11.0 mph 73% 0.00 in
07:19 61.7 °F 53.0 °F 29.98 in West 4.0 mph 11.0 mph 73% 0.00 in
07:24 61.6 °F 52.9 °F 29.98 in West 5.0 mph 10.0 mph 73% 0.00 in
07:29 61.5 °F 53.1 °F 29.99 in SW 4.0 mph 6.0 mph 74% 0.00 in
07:34 62.1 °F 53.7 °F 29.99 in West 4.0 mph 8.0 mph 74% 0.00 in
07:39 62.5 °F 53.7 °F 29.98 in WNW 4.0 mph 10.0 mph 73% 0.00 in
07:44 62.6 °F 53.8 °F 29.98 in WSW 4.0 mph 8.0 mph 73% 0.00 in
07:49 62.5 °F 54.1 °F 29.99 in West 5.0 mph 11.0 mph 74% 0.00 in
07:54 62.7 °F 53.9 °F 29.99 in West 5.0 mph 15.0 mph 73% 0.00 in
07:59 62.7 °F 53.9 °F 29.99 in West 5.0 mph 15.0 mph 73% 0.00 in
08:04 62.8 °F 54.0 °F 29.99 in West 5.0 mph 12.0 mph 73% 0.00 in
08:09 63.1 °F 54.3 °F 29.98 in West 4.0 mph 9.0 mph 73% 0.00 in
08:14 63.2 °F 54.4 °F 29.98 in SW 6.0 mph 10.0 mph 73% 0.00 in
08:19 63.5 °F 54.7 °F 29.99 in West 3.0 mph 9.0 mph 73% 0.00 in
08:24 63.9 °F 54.7 °F 29.99 in SW 4.0 mph 8.0 mph 72% 0.00 in
08:29 64.2 °F 54.6 °F 29.99 in WSW 6.0 mph 9.0 mph 71% 0.00 in
08:34 63.9 °F 54.3 °F 29.99 in WNW 2.0 mph 8.0 mph 71% 0.00 in
08:39 64.0 °F 54.4 °F 29.99 in WNW 4.0 mph 5.0 mph 71% 0.00 in
08:44 65.7 °F 54.8 °F 29.99 in WSW 3.0 mph 8.0 mph 68% 0.00 in
08:49 65.2 °F 54.0 °F 29.99 in West 4.0 mph 11.0 mph 67% 0.00 in
08:54 64.9 °F 54.5 °F 29.99 in West 5.0 mph 11.0 mph 69% 0.00 in
08:59 65.1 °F 54.7 °F 29.99 in West 4.0 mph 9.0 mph 69% 0.00 in
09:04 64.6 °F 53.8 °F 29.99 in West 4.0 mph 10.0 mph 68% 0.00 in
09:09 65.0 °F 54.6 °F 29.99 in West 4.0 mph 10.0 mph 69% 0.00 in
09:14 65.2 °F 54.8 °F 29.99 in WNW 4.0 mph 7.0 mph 69% 0.00 in
09:24 64.4 °F 53.6 °F 29.99 in WSW 3.0 mph 12.0 mph 68% 0.00 in
09:29 65.0 °F 55.0 °F 29.99 in WSW 5.0 mph 9.0 mph 70% 0.00 in
09:34 66.3 °F 54.6 °F 29.99 in SW 8.0 mph 9.0 mph 66% 0.00 in
09:39 66.0 °F 53.9 °F 29.99 in WSW 4.0 mph 10.0 mph 65% 0.00 in
09:44 66.7 °F 53.7 °F 29.99 in West 9.0 mph 12.0 mph 63% 0.00 in
09:49 66.5 °F 54.8 °F 29.99 in WSW 6.0 mph 12.0 mph 66% 0.00 in
09:54 66.4 °F 54.3 °F 29.99 in WSW 5.0 mph 12.0 mph 65% 0.00 in
09:59 65.9 °F 55.0 °F 29.99 in WSW 5.0 mph 13.0 mph 68% 0.00 in
10:04 66.2 °F 55.7 °F 29.99 in South 8.0 mph 11.0 mph 69% 0.00 in
10:09 65.9 °F 55.4 °F 29.99 in WSW 6.0 mph 11.0 mph 69% 0.00 in
10:14 65.7 °F 55.6 °F 29.99 in SW 3.0 mph 13.0 mph 70% 0.00 in
10:19 66.8 °F 57.5 °F 29.99 in SW 10.0 mph 13.0 mph 72% 0.00 in
10:24 67.9 °F 56.9 °F 29.99 in SW 6.0 mph 13.0 mph 68% 0.00 in
10:29 66.9 °F 55.6 °F 29.99 in SW 8.0 mph 10.0 mph 67% 0.00 in
10:34 66.4 °F 55.5 °F 29.98 in WSW 4.0 mph 15.0 mph 68% 0.00 in
10:39 66.8 °F 56.3 °F 29.98 in West 5.0 mph 15.0 mph 69% 0.00 in
10:44 67.4 °F 56.5 °F 29.98 in SW 6.0 mph 15.0 mph 68% 0.00 in
10:49 67.6 °F 55.8 °F 29.98 in WSW 6.0 mph 14.0 mph 66% 0.00 in
10:54 67.4 °F 56.5 °F 29.98 in WSW 5.0 mph 10.0 mph 68% 0.00 in
10:59 68.3 °F 56.1 °F 29.98 in WSW 6.0 mph 15.0 mph 65% 0.00 in
11:04 68.5 °F 56.7 °F 29.98 in SW 6.0 mph 12.0 mph 66% 0.00 in
11:09 68.4 °F 55.7 °F 29.98 in SSW 6.0 mph 13.0 mph 64% 0.00 in
11:14 69.4 °F 56.7 °F 29.98 in West 14.0 mph 14.0 mph 64% 0.00 in
11:19 69.4 °F 56.7 °F 29.98 in WSW 7.0 mph 14.0 mph 64% 0.00 in
11:24 69.6 °F 55.6 °F 29.98 in WSW 7.0 mph 14.0 mph 61% 0.00 in
11:29 69.2 °F 56.1 °F 29.98 in SW 6.0 mph 13.0 mph 63% 0.00 in
11:34 69.9 °F 55.8 °F 29.98 in WSW 6.0 mph 12.0 mph 61% 0.00 in
11:39 69.9 °F 55.8 °F 29.98 in SW 5.0 mph 12.0 mph 61% 0.00 in
11:44 69.6 °F 55.1 °F 29.98 in SW 7.0 mph 15.0 mph 60% 0.00 in
11:49 69.6 °F 57.3 °F 29.98 in WSW 7.0 mph 15.0 mph 65% 0.00 in
11:54 69.9 °F 56.7 °F 29.98 in WSW 12.0 mph 16.0 mph 63% 0.00 in
11:59 69.5 °F 56.3 °F 29.98 in SSW 3.0 mph 12.0 mph 63% 0.00 in
12:04 69.7 °F 56.1 °F 29.98 in SW 8.0 mph 17.0 mph 62% 0.00 in
12:09 69.7 °F 56.5 °F 29.98 in SW 9.0 mph 18.0 mph 63% 0.00 in
12:14 69.5 °F 56.3 °F 29.97 in SW 7.0 mph 18.0 mph 63% 0.00 in
12:19 69.5 °F 54.5 °F 29.97 in WSW 9.0 mph 13.0 mph 59% 0.00 in
12:24 69.7 °F 56.5 °F 29.97 in WSW 5.0 mph 14.0 mph 63% 0.00 in
12:29 69.6 °F 56.0 °F 29.97 in WNW 14.0 mph 14.0 mph 62% 0.00 in
12:34 69.6 °F 56.4 °F 29.97 in SW 5.0 mph 14.0 mph 63% 0.00 in
12:39 69.1 °F 55.5 °F 29.97 in WSW 8.0 mph 13.0 mph 62% 0.00 in
12:44 68.6 °F 55.5 °F 29.97 in SW 10.0 mph 14.0 mph 63% 0.00 in
12:49 69.4 °F 55.8 °F 29.97 in WSW 8.0 mph 16.0 mph 62% 0.00 in
12:54 70.4 °F 54.9 °F 29.97 in WSW 8.0 mph 16.0 mph 58% 0.00 in
12:59 69.4 °F 54.9 °F 29.96 in WSW 7.0 mph 15.0 mph 60% 0.00 in
13:04 69.7 °F 55.6 °F 29.96 in SW 13.0 mph 17.0 mph 61% 0.00 in
13:09 70.4 °F 56.8 °F 29.96 in WSW 8.0 mph 17.0 mph 62% 0.00 in
13:14 69.9 °F 56.7 °F 29.96 in WNW 6.0 mph 16.0 mph 63% 0.00 in
13:19 70.0 °F 55.9 °F 29.95 in WSW 16.0 mph 18.0 mph 61% 0.00 in
13:24 69.7 °F 57.4 °F 29.96 in SW 13.0 mph 16.0 mph 65% 0.00 in
13:29 70.3 °F 57.1 °F 29.95 in WSW 10.0 mph 16.0 mph 63% 0.00 in
13:34 70.4 °F 55.8 °F 29.96 in WSW 12.0 mph 17.0 mph 60% 0.00 in
13:39 70.2 °F 54.7 °F 29.95 in WSW 9.0 mph 17.0 mph 58% 0.00 in
13:44 70.2 °F 55.7 °F 29.95 in WSW 9.0 mph 18.0 mph 60% 0.00 in
13:49 70.1 °F 55.1 °F 29.95 in WSW 9.0 mph 22.0 mph 59% 0.00 in
13:54 70.1 °F 55.1 °F 29.95 in SW 10.0 mph 22.0 mph 59% 0.00 in
13:59 70.8 °F 56.2 °F 29.95 in SW 9.0 mph 19.0 mph 60% 0.00 in
14:04 70.5 °F 53.6 °F 29.95 in WSW 8.0 mph 18.0 mph 55% 0.00 in
14:09 70.6 °F 54.1 °F 29.95 in WSW 9.0 mph 19.0 mph 56% 0.00 in
14:14 70.8 °F 54.8 °F 29.95 in WSW 9.0 mph 19.0 mph 57% 0.00 in
14:19 70.4 °F 55.4 °F 29.94 in West 7.0 mph 19.0 mph 59% 0.00 in
14:24 71.4 °F 56.8 °F 29.95 in SW 10.0 mph 14.0 mph 60% 0.00 in
14:29 71.8 °F 56.7 °F 29.95 in WSW 9.0 mph 15.0 mph 59% 0.00 in
14:34 71.0 °F 54.0 °F 29.94 in SW 11.0 mph 17.0 mph 55% 0.00 in
14:39 70.6 °F 53.1 °F 29.94 in WSW 10.0 mph 20.0 mph 54% 0.00 in
14:44 71.0 °F 56.9 °F 29.94 in WSW 10.0 mph 20.0 mph 61% 0.00 in
14:49 70.8 °F 55.8 °F 29.94 in South 10.0 mph 16.0 mph 59% 0.00 in
14:54 70.8 °F 54.8 °F 29.93 in SW 5.0 mph 16.0 mph 57% 0.00 in
14:59 71.5 °F 57.3 °F 29.93 in WNW 8.0 mph 12.0 mph 61% 0.00 in
15:04 70.8 °F 53.3 °F 29.93 in WSW 9.0 mph 16.0 mph 54% 0.00 in
15:09 71.2 °F 55.2 °F 29.93 in WSW 9.0 mph 16.0 mph 57% 0.00 in
15:14 71.4 °F 55.4 °F 29.93 in SW 8.0 mph 18.0 mph 57% 0.00 in
15:19 70.9 °F 55.4 °F 29.93 in SW 9.0 mph 21.0 mph 58% 0.00 in
15:24 70.4 °F 54.9 °F 29.93 in SW 10.0 mph 22.0 mph 58% 0.00 in
15:29 71.1 °F 55.6 °F 29.94 in WSW 9.0 mph 22.0 mph 58% 0.00 in
15:34 70.7 °F 54.7 °F 29.94 in West 8.0 mph 18.0 mph 57% 0.00 in
15:39 70.6 °F 55.1 °F 29.94 in SW 8.0 mph 18.0 mph 58% 0.00 in
15:44 70.6 °F 56.0 °F 29.94 in South 7.0 mph 18.0 mph 60% 0.00 in
15:49 71.0 °F 55.9 °F 29.94 in SW 17.0 mph 19.0 mph 59% 0.00 in
15:54 71.0 °F 55.5 °F 29.95 in West 13.0 mph 23.0 mph 58% 0.00 in
15:59 70.6 °F 56.0 °F 29.95 in WSW 10.0 mph 23.0 mph 60% 0.00 in
16:04 70.8 °F 55.8 °F 29.95 in WSW 10.0 mph 22.0 mph 59% 0.00 in
16:09 70.4 °F 55.4 °F 29.95 in WSW 10.0 mph 21.0 mph 59% 0.00 in
16:14 69.7 °F 55.6 °F 29.95 in WSW 11.0 mph 21.0 mph 61% 0.00 in
16:19 69.6 °F 53.7 °F 29.95 in WSW 11.0 mph 23.0 mph 57% 0.00 in
16:24 69.3 °F 54.8 °F 29.95 in SW 13.0 mph 22.0 mph 60% 0.00 in
16:29 68.9 °F 54.9 °F 29.95 in SW 14.0 mph 20.0 mph 61% 0.00 in
16:34 68.9 °F 55.3 °F 29.95 in WSW 12.0 mph 24.0 mph 62% 0.00 in
16:39 68.7 °F 55.6 °F 29.94 in SW 11.0 mph 24.0 mph 63% 0.00 in
16:44 69.5 °F 56.3 °F 29.94 in WSW 8.0 mph 19.0 mph 63% 0.00 in
16:49 69.2 °F 55.6 °F 29.94 in WSW 9.0 mph 21.0 mph 62% 0.00 in
16:54 69.0 °F 55.4 °F 29.94 in West 6.0 mph 20.0 mph 62% 0.00 in
16:59 68.4 °F 55.3 °F 29.94 in WSW 11.0 mph 17.0 mph 63% 0.00 in
17:04 68.0 °F 55.4 °F 29.94 in WSW 10.0 mph 22.0 mph 64% 0.00 in
17:14 69.1 °F 55.1 °F 29.93 in WSW 9.0 mph 17.0 mph 61% 0.00 in
17:19 68.9 °F 55.8 °F 29.93 in SW 9.0 mph 15.0 mph 63% 0.00 in
17:24 69.5 °F 55.5 °F 29.93 in SSW 12.0 mph 16.0 mph 61% 0.00 in
17:29 68.9 °F 55.3 °F 29.93 in WSW 12.0 mph 16.0 mph 62% 0.00 in
17:34 69.1 °F 55.5 °F 29.93 in West 9.0 mph 16.0 mph 62% 0.00 in
17:39 68.4 °F 54.9 °F 29.93 in WSW 9.0 mph 22.0 mph 62% 0.00 in
17:44 68.5 °F 56.3 °F 29.93 in West 9.0 mph 22.0 mph 65% 0.00 in
17:49 69.0 °F 56.3 °F 29.93 in West 11.0 mph 15.0 mph 64% 0.00 in
17:54 69.0 °F 56.3 °F 29.93 in WSW 6.0 mph 16.0 mph 64% 0.00 in
17:59 68.3 °F 54.8 °F 29.93 in SW 11.0 mph 18.0 mph 62% 0.00 in
18:04 67.6 °F 55.4 °F 29.93 in WSW 7.0 mph 12.0 mph 65% 0.00 in
18:09 67.8 °F 55.6 °F 29.93 in WSW 9.0 mph 22.0 mph 65% 0.00 in
18:14 68.0 °F 55.4 °F 29.92 in WSW 12.0 mph 20.0 mph 64% 0.00 in
18:19 67.6 °F 55.0 °F 29.92 in SW 10.0 mph 16.0 mph 64% 0.00 in
18:24 67.4 °F 55.2 °F 29.92 in WSW 7.0 mph 14.0 mph 65% 0.00 in
18:29 67.2 °F 55.0 °F 29.92 in WSW 9.0 mph 18.0 mph 65% 0.00 in
18:34 66.7 °F 55.4 °F 29.93 in WSW 10.0 mph 18.0 mph 67% 0.00 in
18:39 67.3 °F 55.5 °F 29.93 in WSW 8.0 mph 16.0 mph 66% 0.00 in
18:44 67.3 °F 55.1 °F 29.93 in WSW 4.0 mph 19.0 mph 65% 0.00 in
18:49 67.4 °F 54.4 °F 29.93 in West 11.0 mph 16.0 mph 63% 0.00 in
18:54 67.0 °F 54.0 °F 29.93 in WSW 13.0 mph 15.0 mph 63% 0.00 in
18:59 66.9 °F 54.3 °F 29.93 in WSW 10.0 mph 21.0 mph 64% 0.00 in
19:04 66.7 °F 54.1 °F 29.93 in WSW 10.0 mph 21.0 mph 64% 0.00 in
19:09 66.4 °F 54.3 °F 29.93 in West 11.0 mph 17.0 mph 65% 0.00 in
19:14 66.3 °F 54.6 °F 29.93 in SSW 7.0 mph 18.0 mph 66% 0.00 in
19:19 66.3 °F 54.6 °F 29.93 in WSW 5.0 mph 17.0 mph 66% 0.00 in
19:24 66.3 °F 54.2 °F 29.92 in SSW 4.0 mph 16.0 mph 65% 0.00 in
19:29 66.4 °F 54.3 °F 29.93 in SW 8.0 mph 16.0 mph 65% 0.00 in
19:34 66.3 °F 54.2 °F 29.93 in SW 8.0 mph 16.0 mph 65% 0.00 in
19:39 66.0 °F 53.9 °F 29.93 in WSW 8.0 mph 22.0 mph 65% 0.00 in
19:44 65.7 °F 54.0 °F 29.93 in WSW 10.0 mph 22.0 mph 66% 0.00 in
19:49 65.5 °F 53.4 °F 29.93 in West 5.0 mph 14.0 mph 65% 0.00 in
19:54 65.4 °F 52.9 °F 29.93 in SW 12.0 mph 17.0 mph 64% 0.00 in
20:04 65.3 °F 52.8 °F 29.93 in SSW 6.0 mph 15.0 mph 64% 0.00 in
20:09 65.2 °F 53.1 °F 29.93 in West 5.0 mph 11.0 mph 65% 0.00 in
20:14 65.1 °F 53.0 °F 29.93 in West 4.0 mph 13.0 mph 65% 0.00 in
20:19 65.2 °F 52.7 °F 29.93 in SW 4.0 mph 14.0 mph 64% 0.00 in
20:24 65.1 °F 52.6 °F 29.93 in West 4.0 mph 12.0 mph 64% 0.00 in
20:29 65.1 °F 52.2 °F 29.93 in WSW 6.0 mph 15.0 mph 63% 0.00 in
20:34 64.4 °F 48.8 °F 29.94 in West 7.0 mph 16.0 mph 57% 0.00 in
20:39 63.5 °F 48.5 °F 29.94 in WNW 7.0 mph 17.0 mph 58% 0.00 in
20:44 62.8 °F 47.3 °F 29.94 in NW 6.0 mph 17.0 mph 57% 0.00 in
20:49 62.5 °F 47.5 °F 29.94 in NW 6.0 mph 13.0 mph 58% 0.00 in
20:54 62.2 °F 47.2 °F 29.94 in WNW 4.0 mph 10.0 mph 58% 0.00 in
20:59 61.8 °F 47.3 °F 29.94 in WNW 5.0 mph 10.0 mph 59% 0.00 in
21:04 61.4 °F 47.4 °F 29.94 in NW 3.0 mph 7.0 mph 60% 0.00 in
21:09 61.3 °F 47.7 °F 29.94 in West 3.0 mph 7.0 mph 61% 0.00 in
21:14 61.1 °F 47.5 °F 29.94 in West 4.0 mph 6.0 mph 61% 0.00 in
21:19 60.9 °F 47.4 °F 29.94 in WNW 1.0 mph 4.0 mph 61% 0.00 in
21:24 60.6 °F 47.5 °F 29.94 in West 1.0 mph 4.0 mph 62% 0.00 in
21:29 60.4 °F 47.3 °F 29.94 in West 1.0 mph 4.0 mph 62% 0.00 in
21:34 60.3 °F 47.6 °F 29.95 in West 1.0 mph 3.0 mph 63% 0.00 in
21:39 60.2 °F 47.6 °F 29.95 in West 1.0 mph 4.0 mph 63% 0.00 in
21:44 60.1 °F 47.9 °F 29.95 in WSW 2.0 mph 5.0 mph 64% 0.00 in
21:49 60.2 °F 48.0 °F 29.95 in West 2.0 mph 4.0 mph 64% 0.00 in
21:54 60.0 °F 47.8 °F 29.95 in Calm   3.0 mph 64% 0.00 in
21:59 59.7 °F 47.5 °F 29.95 in West 1.0 mph 3.0 mph 64% 0.00 in
22:04 59.4 °F 47.6 °F 29.95 in Calm     65% 0.00 in
22:09 59.1 °F 47.3 °F 29.95 in Calm     65% 0.00 in
22:14 58.6 °F 47.3 °F 29.95 in Calm   3.0 mph 66% 0.00 in
22:19 58.2 °F 47.7 °F 29.94 in Calm   3.0 mph 68% 0.00 in
22:24 58.0 °F 47.1 °F 29.95 in Calm     67% 0.00 in
22:29 58.0 °F 47.1 °F 29.95 in Calm   1.0 mph 67% 0.00 in
22:34 58.0 °F 47.1 °F 29.94 in Calm   1.0 mph 67% 0.00 in
22:39 57.8 °F 47.3 °F 29.95 in Calm     68% 0.00 in
22:44 57.3 °F 47.2 °F 29.95 in Calm     69% 0.00 in
22:49 56.7 °F 47.0 °F 29.95 in Calm     70% 0.00 in
22:54 56.5 °F 47.2 °F 29.95 in Calm     71% 0.00 in
22:59 56.4 °F 47.5 °F 29.95 in Calm     72% 0.00 in
23:04 56.3 °F 47.4 °F 29.95 in Calm     72% 0.00 in
23:09 56.1 °F 47.2 °F 29.95 in Calm     72% 0.00 in
23:14 56.1 °F 47.6 °F 29.95 in Calm     73% 0.00 in
23:19 56.3 °F 47.4 °F 29.95 in Calm     72% 0.00 in
23:24 56.4 °F 47.9 °F 29.94 in Calm     73% 0.00 in
23:29 56.5 °F 47.9 °F 29.94 in Calm     73% 0.00 in
23:34 56.4 °F 47.9 °F 29.94 in Calm     73% 0.00 in
23:39 56.4 °F 47.9 °F 29.94 in Calm     73% 0.00 in
23:44 56.3 °F 47.8 °F 29.94 in Calm     73% 0.00 in
23:49 56.5 °F 48.3 °F 29.94 in Calm     74% 0.00 in
23:54 56.8 °F 48.6 °F 29.94 in Calm     74% 0.00 in
23:59 57.1 °F 48.9 °F 29.94 in Calm     74% 0.00 in
Buffalo, New York, USA
Compliments of Weather Underground - 2.5 mb